Weather History for Lone Rock, WI

Change the Weather History Date:

Sunday, November 25, 2012

  Actual Average Record
Temperature  
Mean Temperature 29 °F -  
Max Temperature 39 °F 40 °F 57 °F (1998)
Min Temperature 19 °F 25 °F 10 °F (1996)
Degree Days  
Heating Degree Days 36    
Moisture  
Dew Point 19 °F    
Average Humidity 67    
Maximum Humidity 89    
Minimum Humidity 49    
Precipitation  
Precipitation 0.00 in - - ()
Sea Level Pressure  
Sea Level Pressure 29.95 in    
Wind  
Wind Speed 4 mph (WNW)    
Max Wind Speed 13 mph    
Max Gust Speed 21 mph    
Visibility 10 miles    
Events      
Averages and records for this station are not official NWS values.
T = Trace of Precipitation, MM = Missing Value Source: NWS Daily Summary

Daily Weather History Graph

Daily Weather History Graph

Search for Another Location

Airport:

Trip Planner

Search our weather history database for the weather conditions in past years. The results will help you decide how hot, cold, wet, or windy it might be!

Date:

Astronomy

Nov. 25, 2012 Rise Set
Actual Time 7:06 AM CST 4:28 PM CST
Civil Twilight 6:35 AM CST 5:00 PM CST
Nautical Twilight 5:59 AM CST 5:35 PM CST
Astronomical Twilight 5:25 AM CST 6:09 PM CST
Moon 2:48 PM CST (11/25) 4:17 AM CST (11/25)
Length of Visible Light 10h 25m
Length of Day
9h 22m
Waxing Gibbous, 93% of the Moon is Illuminated
Nov 25
Waxing Gibbous
Nov 28
Full
Dec 6
Last Quarter
Dec 13
New
Dec 19
First Quarter

Hourly Weather History & Observations

Time (CST) Temp. Windchill Dew Point Humidity Pressure Visibility Wind Dir Wind Speed Gust Speed Precip Events Conditions
12:56 AM 30.0 °F - 19.0 °F 64% 29.86 in 10.0 mi Calm Calm - N/A   Mostly Cloudy
1:56 AM 28.0 °F 24.2 °F 19.0 °F 69% 29.86 in 10.0 mi SSW 3.5 mph - N/A   Partly Cloudy
2:56 AM 25.0 °F - 19.0 °F 78% 29.86 in 10.0 mi Calm Calm - N/A   Partly Cloudy
3:56 AM 21.9 °F - 17.1 °F 82% 29.84 in 10.0 mi Calm Calm - N/A   Clear
4:56 AM 19.9 °F - 15.1 °F 81% 29.85 in 10.0 mi Calm Calm - N/A   Clear
5:56 AM 19.9 °F - 17.1 °F 89% 29.86 in 10.0 mi Calm Calm - N/A   Clear
6:56 AM 19.9 °F 14.9 °F 16.0 °F 85% 29.87 in 9.0 mi WSW 3.5 mph - N/A   Clear
7:56 AM 21.9 °F - 18.0 °F 85% 29.88 in 8.0 mi Calm Calm - N/A   Clear
8:56 AM 28.0 °F 22.8 °F 21.9 °F 78% 29.91 in 10.0 mi West 4.6 mph - N/A   Clear
9:56 AM 33.1 °F 26.1 °F 19.9 °F 59% 29.91 in 10.0 mi NW 8.1 mph - N/A   Clear
10:56 AM 34.0 °F 25.0 °F 21.0 °F 59% 29.93 in 10.0 mi NW 12.7 mph - N/A   Clear
11:56 AM 36.0 °F 27.5 °F 21.0 °F 55% 29.93 in 10.0 mi WNW 12.7 mph 20.7 mph N/A   Clear
12:56 PM 37.0 °F 29.3 °F 21.9 °F 54% 29.92 in 10.0 mi NW 11.5 mph - N/A   Clear
1:56 PM 37.9 °F 32.1 °F 21.0 °F 51% 29.92 in 10.0 mi West 8.1 mph - N/A   Clear
2:56 PM 39.0 °F 31.8 °F 21.0 °F 49% 29.93 in 10.0 mi WNW 11.5 mph - N/A   Clear
3:56 PM 37.0 °F 29.8 °F 21.0 °F 52% 29.95 in 10.0 mi WNW 10.4 mph - N/A   Clear
4:56 PM 35.1 °F 30.1 °F 19.9 °F 54% 29.97 in 10.0 mi NW 5.8 mph - N/A   Clear
5:56 PM 30.9 °F 27.5 °F 19.9 °F 64% 29.99 in 10.0 mi WNW 3.5 mph - N/A   Clear
6:56 PM 30.0 °F 26.5 °F 21.0 °F 69% 30.02 in 10.0 mi WNW 3.5 mph - N/A   Clear
7:56 PM 34.0 °F 28.8 °F 21.0 °F 59% 30.03 in 10.0 mi NW 5.8 mph - N/A   Clear
8:56 PM 32.0 °F 24.8 °F 21.0 °F 64% 30.06 in 10.0 mi NW 8.1 mph - N/A   Clear
9:56 PM 30.0 °F 24.1 °F 19.9 °F 66% 30.10 in 10.0 mi North 5.8 mph - N/A   Scattered Clouds
10:56 PM 27.0 °F 23.0 °F 17.1 °F 66% 30.12 in 10.0 mi North 3.5 mph - N/A   Clear
11:56 PM 21.0 °F - 15.1 °F 78% 30.13 in 10.0 mi Calm Calm - N/A   Clear